Location: London
(51.5074°N, 0.1278°W)
Time: 21:21:32
(UTC+01:00)

N. Korean satellite - Pass Details

Date: 05 October 2021
Orbit: 450 x 495 km, 97.3° (Epoch: 23 October)

Event Time Altitude Azimuth Distance (km) Brightness Sun altitude
Rises 06:04:09 0° 18° (NNE) 2,560 10.6 -10.7°
Reaches altitude 10° 06:06:17 10° 24° (NNE) 1,682 9.7 -10.4°
Maximum altitude 06:09:47 46° 99° (E) 666 7.8 -9.9°
Drops below altitude 10° 06:13:18 10° 174° (S) 1,685 9.3 -9.3°
Sets 06:15:26 0° 181° (S) 2,566 10.2 -9.0°
